Location: Unspecified
(48.2082°N, 0.0000°E)
Time: 08:26:49
(UTC+00:00)

Altair - Pass Details

Date: 20 June 2019
Orbit: 1501 x 1683 km, 47.2° (Epoch: 24 July)

Event Time Altitude Azimuth Distance (km) Brightness Sun altitude
Rises 23:48:47 0° 273° (W) 4,798 10.2 -18.3°
Reaches altitude 10° 23:51:50 10° 273° (W) 3,836 9.6 -18.3°
Maximum altitude 00:01:43 84° 187° (S) 1,665 7.6 -18.4°
Drops below altitude 10° 00:11:53 10° 101° (E) 3,940 9.6 -18.3°
Sets 00:15:04 0° 101° (E) 4,933 10.1 -18.3°
